Time,TemperatureF,DewpointF,PressureIn,WindDirection,WindDirectionDegrees,WindSpeedMPH,WindSpeedGustMPH,Humidity,HourlyPrecipIn,Conditions,Clouds,dailyrainin,SoftwareType,DateUTC
2013-04-03 00:01:00,39.2,16.3,30.24,North,-999,0.0,0.0,39,0.00,,,-99.99,FreeWX 2.04,2013-04-03 05:01:00,
2013-04-03 00:11:00,39.0,16.2,30.24,North,-999,0.0,0.0,39,0.00,,,-99.99,FreeWX 2.04,2013-04-03 05:11:00,
2013-04-03 00:21:00,38.1,15.4,30.24,North,-999,0.0,0.0,39,0.00,,,-99.99,FreeWX 2.04,2013-04-03 05:21:00,
2013-04-03 00:31:00,37.9,15.8,30.24,North,-999,0.0,0.0,40,0.00,,,-99.99,FreeWX 2.04,2013-04-03 05:31:00,
2013-04-03 00:41:00,38.1,16.0,30.24,North,-999,0.0,3.1,40,0.00,,,-99.99,FreeWX 2.04,2013-04-03 05:41:00,
2013-04-03 00:51:00,37.9,15.8,30.24,North,-999,0.0,4.0,40,0.00,,,-99.99,FreeWX 2.04,2013-04-03 05:51:00,
2013-04-03 01:01:00,37.9,15.8,30.24,East,101,2.0,4.9,40,0.00,,,-99.99,FreeWX 2.04,2013-04-03 06:01:00,
2013-04-03 01:11:00,37.8,15.6,30.24,East,101,2.0,5.4,40,0.00,,,-99.99,FreeWX 2.04,2013-04-03 06:11:00,
2013-04-03 01:21:00,37.6,15.4,30.24,East,101,2.0,4.9,40,0.00,,,-99.99,FreeWX 2.04,2013-04-03 06:21:00,
2013-04-03 01:31:00,37.2,15.1,30.24,East,101,2.0,5.4,40,0.00,,,-99.99,FreeWX 2.04,2013-04-03 06:31:00,
2013-04-03 01:41:00,37.0,14.9,30.27,East,101,2.0,4.9,40,0.00,,,-99.99,FreeWX 2.04,2013-04-03 06:41:00,
2013-04-03 01:51:00,36.9,14.9,30.27,East,101,3.0,6.3,40,0.00,,,-99.99,FreeWX 2.04,2013-04-03 06:51:00,
2013-04-03 02:01:00,36.9,14.9,30.27,East,101,3.0,6.9,40,0.00,,,-99.99,FreeWX 2.04,2013-04-03 07:01:00,
2013-04-03 02:11:00,36.9,14.9,30.27,East,101,3.0,7.8,40,0.00,,,-99.99,FreeWX 2.04,2013-04-03 07:11:00,
2013-04-03 02:21:00,36.7,14.7,30.27,East,101,3.0,6.7,40,0.00,,,-99.99,FreeWX 2.04,2013-04-03 07:21:00,
2013-04-03 02:31:00,36.5,14.5,30.27,East,101,3.0,8.3,40,0.00,,,-99.99,FreeWX 2.04,2013-04-03 07:31:00,
2013-04-03 02:41:00,36.1,14.2,30.27,East,101,3.0,6.3,40,0.00,,,-99.99,FreeWX 2.04,2013-04-03 07:41:00,
2013-04-03 02:51:00,35.8,13.8,30.27,East,101,2.0,6.9,40,0.00,,,-99.99,FreeWX 2.04,2013-04-03 07:51:00,
2013-04-03 03:01:00,35.6,13.6,30.27,East,101,2.0,6.7,40,0.00,,,-99.99,FreeWX 2.04,2013-04-03 08:01:00,
2013-04-03 03:11:00,35.4,13.5,30.27,East,101,1.0,4.0,40,0.00,,,-99.99,FreeWX 2.04,2013-04-03 08:11:00,
2013-04-03 03:21:00,35.1,13.3,30.27,East,101,1.0,4.5,40,0.00,,,-99.99,FreeWX 2.04,2013-04-03 08:21:00,
2013-04-03 03:31:00,34.9,13.6,30.27,East,101,1.0,4.5,41,0.00,,,-99.99,FreeWX 2.04,2013-04-03 08:31:00,
2013-04-03 03:41:00,34.7,13.5,30.27,East,101,2.0,5.8,41,0.00,,,-99.99,FreeWX 2.04,2013-04-03 08:41:00,
2013-04-03 03:51:00,34.3,13.1,30.27,East,101,2.0,5.4,41,0.00,,,-99.99,FreeWX 2.04,2013-04-03 08:51:00,
2013-04-03 04:01:00,34.2,12.9,30.27,East,101,1.0,4.9,41,0.00,,,-99.99,FreeWX 2.04,2013-04-03 09:01:00,
2013-04-03 04:11:00,34.2,13.5,30.27,East,101,1.0,4.5,42,0.00,,,-99.99,FreeWX 2.04,2013-04-03 09:11:00,
2013-04-03 04:21:00,34.0,13.3,30.27,East,101,1.0,4.9,42,0.00,,,-99.99,FreeWX 2.04,2013-04-03 09:21:00,
2013-04-03 04:31:00,34.0,13.3,30.27,East,101,1.0,4.5,42,0.00,,,-99.99,FreeWX 2.04,2013-04-03 09:31:00,
2013-04-03 04:41:00,34.0,13.8,30.27,East,101,2.0,5.4,43,0.00,,,-99.99,FreeWX 2.04,2013-04-03 09:41:00,
2013-04-03 04:51:00,34.0,13.8,30.27,East,101,2.0,5.4,43,0.00,,,-99.99,FreeWX 2.04,2013-04-03 09:51:00,
2013-04-03 05:01:00,33.8,13.6,30.27,East,101,1.0,5.8,43,0.00,,,-99.99,FreeWX 2.04,2013-04-03 10:01:00,
2013-04-03 05:11:00,33.6,13.5,30.27,East,101,2.0,5.4,43,0.00,,,-99.99,FreeWX 2.04,2013-04-03 10:11:00,
2013-04-03 05:21:00,33.6,13.5,30.27,East,101,2.0,6.3,43,0.00,,,-99.99,FreeWX 2.04,2013-04-03 10:21:00,
2013-04-03 05:31:00,33.4,13.8,30.27,East,101,3.0,6.7,44,0.00,,,-99.99,FreeWX 2.04,2013-04-03 10:31:00,
2013-04-03 05:41:00,33.4,13.8,30.30,East,101,3.0,6.7,44,0.00,,,-99.99,FreeWX 2.04,2013-04-03 10:41:00,
2013-04-03 05:51:00,33.4,13.8,30.30,East,101,3.0,6.9,44,0.00,,,-99.99,FreeWX 2.04,2013-04-03 10:51:00,
2013-04-03 06:01:00,33.4,13.8,30.30,East,101,2.0,5.4,44,0.00,,,-99.99,FreeWX 2.04,2013-04-03 11:01:00,
2013-04-03 06:11:00,33.6,14.0,30.30,East,101,3.0,6.3,44,0.00,,,-99.99,FreeWX 2.04,2013-04-03 11:11:00,
2013-04-03 06:21:00,33.6,14.0,30.30,North,-999,0.0,4.9,44,0.00,,,-99.99,FreeWX 2.04,2013-04-03 11:21:00,
2013-04-03 06:31:00,33.6,14.5,30.30,East,101,1.0,5.4,45,0.00,,,-99.99,FreeWX 2.04,2013-04-03 11:31:00,
2013-04-03 06:41:00,33.4,14.4,30.30,East,101,2.0,5.4,45,0.00,,,-99.99,FreeWX 2.04,2013-04-03 11:41:00,
2013-04-03 06:51:00,33.4,14.4,30.30,East,101,2.0,4.9,45,0.00,,,-99.99,FreeWX 2.04,2013-04-03 11:51:00,
2013-04-03 07:01:00,33.3,14.2,30.30,East,101,2.0,6.3,45,0.00,,,-99.99,FreeWX 2.04,2013-04-03 12:01:00,
2013-04-03 07:11:00,33.3,14.2,30.30,East,101,2.0,6.3,45,0.00,,,-99.99,FreeWX 2.04,2013-04-03 12:11:00,
2013-04-03 07:21:00,33.3,14.2,30.30,East,101,2.0,5.8,45,0.00,,,-99.99,FreeWX 2.04,2013-04-03 12:21:00,
2013-04-03 07:31:00,33.3,14.7,30.30,East,101,2.0,5.8,46,0.00,,,-99.99,FreeWX 2.04,2013-04-03 12:31:00,
2013-04-03 07:41:00,33.4,14.9,30.30,East,101,1.0,4.9,46,0.00,,,-99.99,FreeWX 2.04,2013-04-03 12:41:00,
2013-04-03 07:51:00,33.4,14.9,30.30,East,101,1.0,4.9,46,0.00,,,-99.99,FreeWX 2.04,2013-04-03 12:51:00,
2013-04-03 08:01:00,33.6,15.1,30.30,East,101,2.0,5.8,46,0.00,,,-99.99,FreeWX 2.04,2013-04-03 13:01:00,
2013-04-03 08:11:00,33.8,15.8,30.30,East,101,2.0,6.7,47,0.00,,,-99.99,FreeWX 2.04,2013-04-03 13:11:00,
2013-04-03 08:21:00,34.0,15.4,30.30,East,101,2.0,6.3,46,0.00,,,-99.99,FreeWX 2.04,2013-04-03 13:21:00,
2013-04-03 08:31:00,34.3,16.2,30.30,East,101,2.0,6.3,47,0.00,,,-99.99,FreeWX 2.04,2013-04-03 13:31:00,
2013-04-03 08:41:00,34.9,16.2,30.30,East,101,3.0,6.9,46,0.00,,,-99.99,FreeWX 2.04,2013-04-03 13:41:00,
2013-04-03 08:51:00,35.4,16.7,30.30,East,101,3.0,9.6,46,0.00,,,-99.99,FreeWX 2.04,2013-04-03 13:51:00,
2013-04-03 09:01:00,36.0,16.7,30.30,East,101,3.0,8.7,45,0.00,,,-99.99,FreeWX 2.04,2013-04-03 14:01:00,
2013-04-03 09:11:00,36.7,16.9,30.30,ESE,102,4.0,7.8,44,0.00,,,-99.99,FreeWX 2.04,2013-04-03 14:11:00,
2013-04-03 09:21:00,37.2,17.4,30.30,ESE,103,4.0,8.7,44,0.00,,,-99.99,FreeWX 2.04,2013-04-03 14:21:00,
2013-04-03 09:31:00,37.9,16.9,30.30,ESE,117,5.0,11.2,42,0.00,,,-99.99,FreeWX 2.04,2013-04-03 14:31:00,
2013-04-03 09:41:00,38.5,16.9,30.30,ESE,122,4.0,9.6,41,0.00,,,-99.99,FreeWX 2.04,2013-04-03 14:41:00,
2013-04-03 09:51:00,38.8,17.2,30.30,SE,134,6.0,11.0,41,0.00,,,-99.99,FreeWX 2.04,2013-04-03 14:51:00,
2013-04-03 10:01:00,39.6,18.3,30.30,SSE,147,5.0,10.1,42,0.00,,,-99.99,FreeWX 2.04,2013-04-03 15:01:00,
2013-04-03 10:11:00,40.3,18.5,30.30,SSE,150,5.0,9.6,41,0.00,,,-99.99,FreeWX 2.04,2013-04-03 15:11:00,
2013-04-03 10:21:00,41.0,18.5,30.30,SSE,152,5.0,11.6,40,0.00,,,-99.99,FreeWX 2.04,2013-04-03 15:21:00,
2013-04-03 10:31:00,41.5,18.5,30.30,SSE,163,7.0,13.0,39,0.00,,,-99.99,FreeWX 2.04,2013-04-03 15:31:00,
2013-04-03 10:41:00,42.3,19.0,30.30,SSE,168,6.0,11.6,39,0.00,,,-99.99,FreeWX 2.04,2013-04-03 15:41:00,
2013-04-03 10:51:00,43.2,19.9,30.30,SSE,167,5.0,12.1,39,0.00,,,-99.99,FreeWX 2.04,2013-04-03 15:51:00,
2013-04-03 11:11:00,45.0,20.8,30.33,South,169,7.0,14.3,38,0.00,,,-99.99,FreeWX 2.04,2013-04-03 16:11:00,
2013-04-03 11:21:00,45.3,20.7,30.33,South,173,8.0,13.9,37,0.00,,,-99.99,FreeWX 2.04,2013-04-03 16:21:00,
2013-04-03 11:41:00,46.9,20.7,30.30,South,180,7.0,11.0,35,0.00,,,-99.99,FreeWX 2.04,2013-04-03 16:41:00,
2013-04-03 11:51:00,47.5,20.5,30.30,South,178,7.0,12.5,34,0.00,,,-99.99,FreeWX 2.04,2013-04-03 16:51:00,
2013-04-03 12:01:00,47.7,19.9,30.30,South,182,8.0,13.0,33,0.00,,,-99.99,FreeWX 2.04,2013-04-03 17:01:00,
2013-04-03 12:11:00,48.6,20.1,30.30,South,177,7.0,13.0,32,0.00,,,-99.99,FreeWX 2.04,2013-04-03 17:11:00,
2013-04-03 12:21:00,49.6,21.0,30.30,South,186,6.0,12.5,32,0.00,,,-99.99,FreeWX 2.04,2013-04-03 17:21:00,
2013-04-03 12:31:00,49.8,20.5,30.30,South,182,7.0,12.5,31,0.00,,,-99.99,FreeWX 2.04,2013-04-03 17:31:00,
2013-04-03 12:41:00,50.4,20.8,30.30,South,187,8.0,15.2,31,0.00,,,-99.99,FreeWX 2.04,2013-04-03 17:41:00,
2013-04-03 12:51:00,51.3,20.8,30.30,South,185,6.0,13.4,30,0.00,,,-99.99,FreeWX 2.04,2013-04-03 17:51:00,
2013-04-03 13:01:00,51.6,20.5,30.27,South,183,6.0,11.6,29,0.00,,,-99.99,FreeWX 2.04,2013-04-03 18:01:00,
2013-04-03 13:21:00,53.2,21.7,30.27,South,182,7.0,13.4,29,0.00,,,-99.99,FreeWX 2.04,2013-04-03 18:21:00,
2013-04-03 13:31:00,53.6,22.1,30.27,South,189,6.0,11.6,29,0.00,,,-99.99,FreeWX 2.04,2013-04-03 18:31:00,
2013-04-03 13:41:00,54.3,21.9,30.27,South,184,6.0,13.9,28,0.00,,,-99.99,FreeWX 2.04,2013-04-03 18:41:00,
2013-04-03 13:51:00,54.9,22.5,30.27,South,179,6.0,12.5,28,0.00,,,-99.99,FreeWX 2.04,2013-04-03 18:51:00,
2013-04-03 14:01:00,54.5,22.1,30.24,SSW,195,6.0,14.3,28,0.00,,,-99.99,FreeWX 2.04,2013-04-03 19:01:00,
2013-04-03 14:11:00,55.4,22.8,30.24,SSW,192,7.0,13.9,28,0.00,,,-99.99,FreeWX 2.04,2013-04-03 19:11:00,
2013-04-03 14:21:00,55.8,22.3,30.24,South,177,7.0,13.9,27,0.00,,,-99.99,FreeWX 2.04,2013-04-03 19:21:00,
2013-04-03 14:31:00,55.6,22.1,30.24,South,186,8.0,12.1,27,0.00,,,-99.99,FreeWX 2.04,2013-04-03 19:31:00,
2013-04-03 14:41:00,55.6,22.1,30.24,South,183,7.0,14.8,27,0.00,,,-99.99,FreeWX 2.04,2013-04-03 19:41:00,
2013-04-03 14:51:00,55.6,22.1,30.24,South,186,7.0,12.5,27,0.00,,,-99.99,FreeWX 2.04,2013-04-03 19:51:00,
2013-04-03 15:01:00,55.0,21.7,30.24,South,189,6.0,13.9,27,0.00,,,-99.99,FreeWX 2.04,2013-04-03 20:01:00,
2013-04-03 15:11:00,55.0,21.7,30.24,South,189,8.0,15.4,27,0.00,,,-99.99,FreeWX 2.04,2013-04-03 20:11:00,
2013-04-03 15:21:00,54.7,20.5,30.24,South,184,6.0,12.1,26,0.00,,,-99.99,FreeWX 2.04,2013-04-03 20:21:00,
2013-04-03 15:31:00,54.7,21.4,30.24,South,189,6.0,12.1,27,0.00,,,-99.99,FreeWX 2.04,2013-04-03 20:31:00,
2013-04-03 15:41:00,54.5,21.2,30.24,South,183,7.0,12.1,27,0.00,,,-99.99,FreeWX 2.04,2013-04-03 20:41:00,
2013-04-03 15:51:00,54.1,20.8,30.24,South,180,8.0,12.1,27,0.00,,,-99.99,FreeWX 2.04,2013-04-03 20:51:00,
2013-04-03 16:01:00,54.1,20.8,30.24,South,179,7.0,14.3,27,0.00,,,-99.99,FreeWX 2.04,2013-04-03 21:01:00,
2013-04-03 16:11:00,54.0,20.8,30.21,South,186,7.0,13.4,27,0.00,,,-99.99,FreeWX 2.04,2013-04-03 21:11:00,
2013-04-03 16:21:00,53.8,20.7,30.21,South,188,7.0,12.5,27,0.00,,,-99.99,FreeWX 2.04,2013-04-03 21:21:00,
2013-04-03 16:31:00,53.4,20.3,30.21,South,187,7.0,11.2,27,0.00,,,-99.99,FreeWX 2.04,2013-04-03 21:31:00,
2013-04-03 16:41:00,53.2,20.1,30.21,South,183,8.0,13.4,27,0.00,,,-99.99,FreeWX 2.04,2013-04-03 21:41:00,
2013-04-03 16:51:00,53.8,20.7,30.21,South,187,8.0,11.6,27,0.00,,,-99.99,FreeWX 2.04,2013-04-03 21:51:00,
2013-04-03 17:01:00,55.4,21.9,30.21,South,179,6.0,11.6,27,0.00,,,-99.99,FreeWX 2.04,2013-04-03 22:01:00,
2013-04-03 17:21:00,56.1,21.7,30.21,South,171,4.0,8.7,26,0.00,,,-99.99,FreeWX 2.04,2013-04-03 22:21:00,
2013-04-03 17:31:00,55.4,21.0,30.18,South,176,5.0,8.7,26,0.00,,,-99.99,FreeWX 2.04,2013-04-03 22:31:00,
2013-04-03 17:41:00,54.9,20.7,30.18,South,177,5.0,10.1,26,0.00,,,-99.99,FreeWX 2.04,2013-04-03 22:41:00,
2013-04-03 17:51:00,54.9,20.7,30.18,South,176,6.0,11.0,26,0.00,,,-99.99,FreeWX 2.04,2013-04-03 22:51:00,
2013-04-03 18:01:00,54.5,21.2,30.18,South,181,6.0,10.5,27,0.00,,,-99.99,FreeWX 2.04,2013-04-03 23:01:00,
2013-04-03 18:11:00,54.3,21.0,30.18,South,184,6.0,10.5,27,0.00,,,-99.99,FreeWX 2.04,2013-04-03 23:11:00,
2013-04-03 18:21:00,54.3,21.0,30.18,South,183,6.0,11.0,27,0.00,,,-99.99,FreeWX 2.04,2013-04-03 23:21:00,
2013-04-03 18:31:00,54.1,19.9,30.18,South,184,6.0,11.6,26,0.00,,,-99.99,FreeWX 2.04,2013-04-03 23:31:00,
2013-04-03 18:41:00,53.8,19.8,30.18,South,188,7.0,12.1,26,0.00,,,-99.99,FreeWX 2.04,2013-04-03 23:41:00,
2013-04-03 18:51:00,53.8,19.8,30.18,South,187,7.0,11.0,26,0.00,,,-99.99,FreeWX 2.04,2013-04-03 23:51:00,
2013-04-03 19:01:00,53.4,19.4,30.18,South,185,7.0,12.1,26,0.00,,,-99.99,FreeWX 2.04,2013-04-04 00:01:00,
2013-04-03 19:11:00,53.2,19.2,30.18,South,181,6.0,10.5,26,0.00,,,-99.99,FreeWX 2.04,2013-04-04 00:11:00,
2013-04-03 19:21:00,52.9,18.9,30.18,South,180,6.0,8.7,26,0.00,,,-99.99,FreeWX 2.04,2013-04-04 00:21:00,
2013-04-03 19:31:00,52.3,19.4,30.18,South,181,4.0,6.9,27,0.00,,,-99.99,FreeWX 2.04,2013-04-04 00:31:00,
2013-04-03 19:41:00,51.4,18.5,30.18,South,181,4.0,7.4,27,0.00,,,-99.99,FreeWX 2.04,2013-04-04 00:41:00,
2013-04-03 19:51:00,50.7,18.0,30.18,South,181,4.0,6.7,27,0.00,,,-99.99,FreeWX 2.04,2013-04-04 00:51:00,
2013-04-03 20:11:00,49.3,17.6,30.18,South,181,2.0,4.5,28,0.00,,,-99.99,FreeWX 2.04,2013-04-04 01:11:00,
2013-04-03 20:21:00,48.7,17.1,30.18,South,181,2.0,4.0,28,0.00,,,-99.99,FreeWX 2.04,2013-04-04 01:21:00,
2013-04-03 20:31:00,48.2,16.7,30.18,South,181,2.0,4.5,28,0.00,,,-99.99,FreeWX 2.04,2013-04-04 01:31:00,
2013-04-03 20:41:00,47.7,16.2,30.21,North,-999,0.0,3.6,28,0.00,,,-99.99,FreeWX 2.04,2013-04-04 01:41:00,
2013-04-03 20:51:00,47.1,16.5,30.21,North,-999,0.0,0.0,29,0.00,,,-99.99,FreeWX 2.04,2013-04-04 01:51:00,
2013-04-03 21:01:00,46.2,15.8,30.21,North,-999,0.0,0.0,29,0.00,,,-99.99,FreeWX 2.04,2013-04-04 02:01:00,
2013-04-03 21:11:00,45.5,15.8,30.21,North,-999,0.0,3.6,30,0.00,,,-99.99,FreeWX 2.04,2013-04-04 02:11:00,
2013-04-03 21:21:00,45.0,15.4,30.21,North,-999,0.0,3.6,30,0.00,,,-99.99,FreeWX 2.04,2013-04-04 02:21:00,
2013-04-03 21:31:00,44.8,16.0,30.21,South,181,2.0,5.4,31,0.00,,,-99.99,FreeWX 2.04,2013-04-04 02:31:00,
2013-04-03 21:41:00,44.8,16.7,30.21,South,181,3.0,6.7,32,0.00,,,-99.99,FreeWX 2.04,2013-04-04 02:41:00,
2013-04-03 21:51:00,44.4,16.3,30.21,South,181,2.0,6.3,32,0.00,,,-99.99,FreeWX 2.04,2013-04-04 02:51:00,
2013-04-03 22:01:00,44.4,17.1,30.21,South,181,2.0,6.9,33,0.00,,,-99.99,FreeWX 2.04,2013-04-04 03:01:00,
2013-04-03 22:11:00,44.1,16.9,30.21,South,181,2.0,5.8,33,0.00,,,-99.99,FreeWX 2.04,2013-04-04 03:11:00,
2013-04-03 22:21:00,43.3,16.9,30.21,South,181,3.0,7.4,34,0.00,,,-99.99,FreeWX 2.04,2013-04-04 03:21:00,
2013-04-03 22:31:00,43.0,17.2,30.21,South,181,2.0,6.9,35,0.00,,,-99.99,FreeWX 2.04,2013-04-04 03:31:00,
2013-04-03 22:41:00,42.4,17.4,30.21,South,181,1.0,4.9,36,0.00,,,-99.99,FreeWX 2.04,2013-04-04 03:41:00,
2013-04-03 22:51:00,41.9,17.6,30.21,South,181,3.0,5.4,37,0.00,,,-99.99,FreeWX 2.04,2013-04-04 03:51:00,
2013-04-03 23:01:00,41.4,17.6,30.21,South,181,2.0,4.9,38,0.00,,,-99.99,FreeWX 2.04,2013-04-04 04:01:00,
2013-04-03 23:11:00,41.2,17.6,30.21,South,181,1.0,5.4,38,0.00,,,-99.99,FreeWX 2.04,2013-04-04 04:11:00,
2013-04-03 23:21:00,40.6,17.1,30.21,South,181,2.0,4.5,38,0.00,,,-99.99,FreeWX 2.04,2013-04-04 04:21:00,
2013-04-03 23:31:00,40.3,17.2,30.21,South,181,2.0,4.9,39,0.00,,,-99.99,FreeWX 2.04,2013-04-04 04:31:00,
2013-04-03 23:41:00,39.7,16.9,30.21,South,181,3.0,5.4,39,0.00,,,-99.99,FreeWX 2.04,2013-04-04 04:41:00,
2013-04-03 23:51:00,39.4,17.1,30.21,South,181,3.0,6.3,40,0.00,,,-99.99,FreeWX 2.04,2013-04-04 04:51:00,